Location: Bazinghen
(50.8246°N, 1.6616°E)
Time: 01:08:13
(UTC+00:00)

Cosmos 2058 - Pass Details

Date: 09 April 2020
Orbit: 563 x 582 km, 82.5° (Epoch: 30 May)

Event Time Altitude Azimuth Distance (km) Brightness Sun altitude
Rises 20:49:18 0° 346° (NNW) 2,776 7.3 -18.9°
Reaches altitude 10° 20:51:30 10° 344° (NNW) 1,876 6.4 -19.2°
Maximum altitude 20:55:35 62° 264° (W) 646 3.3 -19.6°
Enters shadow 20:57:24 31° 194° (SSW) 1,020 3.9 -19.9°
